Weather History for KISW - May, 2013

Change the Weather History Date:

Monday, May 6, 2013

  Actual Average Record
Temperature  
Mean Temperature 58 °F -  
Max Temperature 75 °F 65 °F 85 °F (1949)
Min Temperature 41 °F 38 °F 22 °F (1989)
Degree Days  
Heating Degree Days 7    
Growing Degree Days 8 (Base 50)    
Moisture  
Dew Point 39 °F    
Average Humidity 58    
Maximum Humidity 100    
Minimum Humidity 23    
Precipitation  
Precipitation 0.00 in - - ()
Sea Level Pressure  
Sea Level Pressure 30.07 in    
Wind  
Wind Speed 1 mph (East)    
Max Wind Speed 9 mph    
Max Gust Speed -    
Visibility 9 miles    
Events      
Averages and records for this station are not official NWS values.
T = Trace of Precipitation, MM = Missing Value Source: NWS Daily Summary

Daily Weather History Graph

Daily Weather History Graph

Search for Another Location

Airport or City:

Trip Planner

Search our weather history database for the weather conditions in past years. The results will help you decide how hot, cold, wet, or windy it might be!

Date:

Astronomy

May. 06, 2013 Rise Set
Actual Time 5:42 AM CDT 8:09 PM CDT
Civil Twilight 5:10 AM CDT 8:42 PM CDT
Nautical Twilight 4:29 AM CDT 9:23 PM CDT
Astronomical Twilight 3:44 AM CDT 10:09 PM CDT
Moon 3:52 AM CDT (5/6) 5:03 PM CDT (5/6)
Length of Visible Light 15h 32m
Length of Day
14h 26m
Waning Crescent, 11% of the Moon is Illuminated
May 6
Waning Crescent
May 9
New
May 17
First Quarter
May 24
Full
May 31
Last Quarter

Hourly Weather History & Observations

Time (CDT) Temp. Dew Point Humidity Pressure Visibility Wind Dir Wind Speed Gust Speed Precip Events Conditions
12:54 AM 46.9 °F 42.1 °F 83% 30.07 in 10.0 mi Calm Calm - N/A   Clear
1:54 AM 46.0 °F 42.1 °F 86% 30.07 in 10.0 mi Calm Calm - N/A   Clear
2:54 AM 43.0 °F 41.0 °F 93% 30.07 in 10.0 mi Calm Calm - N/A   Clear
3:54 AM 43.0 °F 41.0 °F 93% 30.08 in 10.0 mi Calm Calm - N/A   Clear
4:52 AM 41.0 °F 41.0 °F 100% 30.09 in 1.8 mi Calm Calm - N/A   Clear
4:54 AM 41.0 °F 39.9 °F 96% 30.09 in 1.8 mi Calm Calm - N/A   Clear
4:59 AM 42.8 °F 39.2 °F 87% 30.09 in 3.0 mi Calm Calm - N/A   Clear
5:54 AM 42.1 °F 39.9 °F 92% 30.11 in 7.0 mi Calm Calm - N/A   Clear
6:54 AM 46.0 °F 42.1 °F 86% 30.12 in 10.0 mi Calm Calm - N/A   Clear
7:54 AM 54.0 °F 43.0 °F 66% 30.12 in 10.0 mi East 5.8 mph - N/A   Clear
8:54 AM 57.0 °F 41.0 °F 55% 30.13 in 10.0 mi East 3.5 mph - N/A   Clear
9:54 AM 60.1 °F 41.0 °F 49% 30.12 in 10.0 mi Calm Calm - N/A   Clear
10:54 AM 68.0 °F 37.9 °F 33% 30.11 in 10.0 mi Calm Calm - N/A   Clear
11:54 AM 71.1 °F 37.9 °F 30% 30.09 in 10.0 mi NNE 9.2 mph - N/A   Clear
12:54 PM 73.0 °F 37.0 °F 27% 30.08 in 10.0 mi East 4.6 mph - N/A   Clear
1:54 PM 73.0 °F 37.9 °F 28% 30.06 in 10.0 mi ESE 3.5 mph - N/A   Clear
2:54 PM 73.9 °F 35.1 °F 24% 30.05 in 10.0 mi SE 4.6 mph - N/A   Clear
3:54 PM 73.9 °F 37.0 °F 26% 30.04 in 10.0 mi Calm Calm - N/A   Clear
4:54 PM 75.0 °F 35.1 °F 23% 30.03 in 10.0 mi Calm Calm - N/A   Clear
5:54 PM 73.0 °F 33.1 °F 23% 30.03 in 10.0 mi East 4.6 mph - N/A   Clear
6:54 PM 72.0 °F 34.0 °F 25% 30.02 in 10.0 mi Calm Calm - N/A   Clear
7:54 PM 66.9 °F 39.0 °F 36% 30.02 in 10.0 mi Calm Calm - N/A   Clear
8:54 PM 55.9 °F 37.9 °F 51% 30.03 in 10.0 mi ESE 3.5 mph - N/A   Clear
9:54 PM 54.0 °F 39.9 °F 59% 30.05 in 10.0 mi SSE 3.5 mph - N/A   Clear
10:54 PM 54.0 °F 39.9 °F 59% 30.04 in 10.0 mi Calm Calm - N/A   Clear
11:54 PM 51.1 °F 39.9 °F 66% 30.04 in 10.0 mi Calm Calm - N/A   Clear